[[{"header":{"parameterUnit":"m.s-1","parameterCategory":1,"la1":30.2991,"la2":30.254,"lo1":-89.0895,"lo2":-89.0444,"dy":0.0017,"dx":0.0017,"nx":28,"ny":28,"refTime":"2023-08-15T21:00:00:Z","depth":0,"parameterNumber":2,"parameterNumberName":"U-component_of_WINDS"},"data":[0,0,0,0,0,0,0,0,0,0,0,0,0,0,0,0,0,0,0,0,0,0,0,0,0,0,0,0,0,0,0,0,0,0,0,0,0,0,0,0,0,0,0,0,0,0,0,0,0,0,0,0,0,0,0,0,0,0,-2.6965,-2.6965,0,-2.7009,-2.701,-2.701,-2.6946,-2.6943,-2.6941,-2.6939,-2.6983,-2.6986,-2.699,0,0,0,0,0,0,0,0,0,0,0,0,0,-2.6823,-2.6826,-2.6965,-2.6965,-2.6966,-2.7009,-2.701,-2.701,-2.6946,-2.6943,-2.6941,-2.6938,-2.6982,-2.6986,-2.699,0,0,0,0,0,0,0,0,0,0,0,0,0,-2.6878,-2.6827,-2.6965,-2.6939,-2.6937,-2.7009,-2.701,-2.7011,-2.6947,-2.6943,-2.694,-2.6937,-2.6981,-2.6986,-2.699,-2.7089,0,0,-2.7006,-2.7008,0,0,0,0,0,0,0,0,-2.6875,-2.6883,-2.6942,-2.6941,-2.6939,-2.6968,-2.6976,-2.7037,-2.6947,-2.6943,-2.6939,-2.6935,-2.6981,-2.6986,-2.7001,-2.7091,-2.7093,-2.7006,-2.7009,-2.7011,-2.7013,0,0,0,0,0,0,0,-2.6871,-2.6881,-2.6982,-2.6943,-2.6941,-2.6925,-2.6929,-2.6987,-2.698,-2.6943,-2.6939,-2.6945,-2.6979,-2.6997,-2.7002,-2.7094,-2.7006,-2.701,-2.7013,-2.7015,-2.7266,-2.727,0,0,0,0,0,0,-2.687,-2.6878,-2.6981,-2.6984,-2.6898,-2.693,-2.6935,-2.6962,-2.698,-2.6979,-2.6948,-2.6942,-2.699,-2.6996,-2.7003,-2.7118,-2.7011,-2.7016,-2.7019,-2.7262,-2.7267,-2.7271,0,0,0,0,0,0,-2.6868,-2.688,-2.6979,-2.693,-2.6941,-2.6936,-2.6968,-2.6965,-2.6982,-2.6983,-2.6981,-2.6967,-2.6988,-2.6996,-2.7068,-2.7119,-2.7018,-2.7022,-2.7258,-2.7264,-2.7269,-2.735,0,0,0,0,0,0,-2.6864,-2.688,-2.6917,-2.6931,-2.6944,-2.7044,-2.6971,-2.6968,-2.6991,-2.6984,-2.7001,-2.7,-2.6986,-2.7061,-2.7073,-2.7124,-2.7026,-2.7253,-2.7261,-2.7267,-2.7343,-2.7358,-2.7371,0,0,0,0,0,-2.6859,-2.6938,-2.6919,-2.6932,-2.6991,-2.7047,-2.7054,-2.7036,-2.6996,-2.7033,-2.7034,-2.6999,-2.7113,-2.7069,-2.7082,-2.7135,-2.725,-2.7259,-2.7267,-2.7337,-2.7355,-2.737,0,0,0,0,0,0,-2.6929,-2.6939,-2.6919,-2.7005,-2.7026,-2.7036,-2.7082,-2.7056,-2.7088,-2.708,-2.7056,-2.7061,-2.7137,-2.7144,-2.7095,-2.7231,-2.7174,-2.7186,-2.7223,-2.7241,-2.7254,-2.7249,-2.703,0,0,0,0,0,-2.6955,-2.7,-2.7007,-2.7082,-2.7093,-2.7086,-2.711,-2.7095,-2.7115,-2.7123,-2.7129,-2.7149,-2.7189,-2.7216,-2.7253,-2.7345,-2.7347,-2.7388,-2.7402,-2.7413,-2.7422,-2.747,-2.7488,-2.7298,-2.7298,-2.7298,0,0,-2.7008,-2.702,-2.7049,-2.7096,-2.711,-2.7157,-2.7094,-2.7146,-2.7179,-2.7131,-2.7198,-2.7204,-2.7225,-2.7307,-2.7344,-2.7315,-2.7476,-2.7424,-2.7433,-2.7436,-2.7481,-2.7499,-2.7514,-2.7304,-2.7303,-2.7302,0,0,-2.7128,-2.7142,-2.7205,-2.7221,-2.7244,-2.7239,-2.7255,-2.7269,-2.7271,-2.7339,-2.7303,-2.7344,-2.7413,-2.743,-2.7447,-2.7576,-2.7545,-2.7589,-2.766,-2.7707,-2.7721,-2.7734,-2.7778,-2.7794,-2.7598,-2.7599,-2.7599,0,-2.719,-2.7259,-2.7241,-2.7296,-2.7317,-2.7277,-2.734,-2.7356,-2.739,-2.7405,-2.7374,-2.746,-2.7472,-2.7557,-2.7588,-2.7605,-2.762,-2.7584,-2.7721,-2.7734,-2.7746,-2.7787,-2.7803,-2.7603,-2.7603,-2.7602,-2.7602,0,-2.7334,-2.7382,-2.7431,-2.7465,-2.7492,-2.7551,-2.7541,-2.7572,-2.7555,-2.7553,-2.7623,-2.7636,-2.7675,-2.7695,-2.7679,-2.7777,-2.7758,-2.7725,-2.7666,-2.7769,-2.7807,-2.7823,-2.761,-2.7609,-2.7607,-2.7606,0,0,-2.7495,-2.752,-2.7538,-2.7552,-2.7576,-2.7612,-2.767,-2.7708,-2.7733,-2.7759,-2.7805,-2.7866,-2.7835,-2.7855,-2.7841,-2.7883,-2.7981,-2.7844,-2.7844,-2.7866,-2.8089,-2.8111,-2.813,-2.7963,-2.7966,-2.7968,-2.8086,0,-2.7612,-2.7711,-2.7697,-2.7792,-2.7836,-2.7799,-2.7849,-2.7869,-2.787,-2.7907,-2.7908,-2.795,-2.7908,-2.7919,-2.7959,-2.7961,-2.8025,-2.7953,-2.8004,-2.8006,-2.7996,-2.815,-2.8174,-2.8284,-2.8101,-2.8103,-2.8105,0,-2.7761,-2.7792,-2.7891,-2.7907,-2.7925,-2.797,-2.8004,-2.8041,-2.8063,-2.806,-2.8084,-2.8063,-2.812,-2.8064,-2.8141,-2.8093,-2.8114,-2.8118,-2.8122,-2.8122,-2.8059,-2.8152,-2.8319,-2.8334,-2.8129,-2.8127,-2.8125,0,-2.7865,-2.7932,-2.8,-2.8014,-2.8035,-2.8068,-2.8078,-2.8097,-2.8121,-2.8151,-2.8166,-2.8203,-2.8222,-2.8251,-2.824,-2.8201,-2.832,-2.8263,-2.8318,-2.8318,-2.8341,-2.8339,-2.851,-2.8361,-2.8361,-2.836,-2.836,0,-2.7995,-2.8056,-2.8047,-2.8088,-2.8155,-2.814,-2.8208,-2.8214,-2.8231,-2.8272,-2.8245,-2.8284,-2.8269,-2.8308,-2.8301,-2.8365,-2.8375,-2.8374,-2.837,-2.8374,-2.8374,-2.8384,-2.8375,-2.8365,-2.8364,-2.8363,-2.8362,0,-2.812,-2.8117,-2.8188,-2.8203,-2.8209,-2.8258,-2.827,-2.8309,-2.8309,-2.8362,-2.8373,-2.8373,-2.8417,-2.8411,-2.846,-2.8455,-2.8534,-2.8524,-2.8527,-2.8523,-2.8576,-2.857,-2.8757,-2.878,-2.862,-2.8621,-2.8623,0,-2.8201,-2.8248,-2.8269,-2.8294,-2.8307,-2.835,-2.8374,-2.8362,-2.8389,-2.8418,-2.8453,-2.8495,-2.8527,-2.8599,-2.8603,-2.8641,-2.8628,-2.8692,-2.8633,-2.8636,-2.8625,-2.8621,-2.8625,-2.8702,-2.8703,-2.8705,-2.8706,0,-2.8344,-2.8341,-2.8377,-2.8414,-2.8444,-2.8472,-2.8497,-2.852,-2.8511,-2.8542,-2.8587,-2.8613,-2.8663,-2.8705,-2.874,-2.8751,-2.8726,-2.8725,-2.8739,-2.8741,-2.874,-2.8738,-2.8554,-2.872,-2.8718,-2.8717,-2.8717,-2.8716,-2.8448,-2.8487,-2.8507,-2.8549,-2.8567,-2.8592,-2.8628,-2.8634,-2.8671,-2.8711,-2.8703,-2.8753,-2.8775,-2.882,-2.8835,-2.8874,-2.885,-2.8872,-2.8876,-2.8881,-2.8885,-2.8737,-2.8881,-2.8881,-2.888,-2.888,-2.888,0,-2.8586,-2.8598,-2.8637,-2.8674,-2.8707,-2.8684,-2.8711,-2.8739,-2.8784,-2.8807,-2.8839,-2.8891,-2.8932,-2.894,-2.8979,-2.9009,-2.8998,-2.9019,-2.9014,-2.9017,-2.8906,-2.8888,-2.9026,-2.9026,-2.9026,-2.9026,-2.9026,-2.9026,-2.8662,-2.8726,-2.8725,-2.8798,-2.881,-2.8859,-2.8877,-2.8899,-2.8917,-2.8976,-2.901,-2.9015,-2.9032,-2.9072,-2.9108,-2.911,-2.9124,-2.9148,-2.9145,-2.904,-2.9025,-2.9011,-2.8994,-2.9152,-2.9152,-2.9252,-2.9253,-2.9254]},{"header":{"parameterUnit":"m.s-1","parameterCategory":1,"la1":30.2991,"la2":30.254,"lo1":-89.0895,"lo2":-89.0444,"dy":0.0017,"dx":0.0017,"nx":28,"ny":28,"refTime":"2023-08-15T21:00:00:Z","depth":0,"parameterNumber":3,"parameterNumberName":"V-component_of_WINDS"},"data":[0,0,0,0,0,0,0,0,0,0,0,0,0,0,0,0,0,0,0,0,0,0,0,0,0,0,0,0,0,0,0,0,0,0,0,0,0,0,0,0,0,0,0,0,0,0,0,0,0,0,0,0,0,0,0,0,0,0,2.9012,2.9011,0,2.8949,2.8948,2.8947,2.8824,2.8822,2.8819,2.8817,2.8754,2.8754,2.8755,0,0,0,0,0,0,0,0,0,0,0,0,0,2.903,2.9031,2.9012,2.9011,2.9011,2.8949,2.8948,2.8947,2.8825,2.8822,2.8819,2.8816,2.8754,2.8754,2.8755,0,0,0,0,0,0,0,0,0,0,0,0,0,2.9,2.9031,2.9012,2.8942,2.8935,2.8949,2.8948,2.8947,2.8825,2.8821,2.8818,2.8814,2.8753,2.8754,2.8755,2.8833,0,0,2.8758,2.8758,0,0,0,0,0,0,0,0,2.9002,2.9,2.8953,2.8947,2.8939,2.889,2.8931,2.8909,2.8826,2.8867,2.8817,2.8813,2.8802,2.8799,2.8795,2.883,2.8827,2.8758,2.8758,2.8759,2.8759,0,0,0,0,0,0,0,2.9005,2.9002,2.8987,2.8953,2.8944,2.8915,2.8906,2.8926,2.8856,2.8863,2.8854,2.8848,2.8798,2.8795,2.8793,2.8826,2.8758,2.8759,2.8759,2.8759,2.8924,2.8927,0,0,0,0,0,0,2.9017,2.9004,2.8989,2.8985,2.8962,2.8917,2.8908,2.891,2.8855,2.8843,2.8851,2.8843,2.8795,2.8792,2.879,2.8878,2.8759,2.876,2.876,2.892,2.8924,2.8929,0,0,0,0,0,0,2.9017,2.9016,2.8992,2.8992,2.8987,2.8921,2.8924,2.8911,2.8907,2.8846,2.8833,2.8861,2.8792,2.8789,2.8823,2.8874,2.876,2.8761,2.8915,2.8921,2.8927,2.9054,0,0,0,0,0,0,2.9018,2.9017,2.9045,2.8994,2.8987,2.9025,2.8927,2.8912,2.8909,2.8897,2.8852,2.8841,2.8789,2.8823,2.8824,2.8873,2.8761,2.891,2.8918,2.8925,2.9045,2.9064,2.9079,0,0,0,0,0,2.9019,2.9084,2.9047,2.9046,2.9021,2.9029,2.9025,2.8963,2.8913,2.8941,2.8903,2.8842,2.8869,2.8827,2.8828,2.8878,2.8907,2.8916,2.8924,2.9037,2.906,2.9079,0,0,0,0,0,0,2.9143,2.9076,2.9034,2.9084,2.9063,2.9008,2.9041,2.8989,2.8982,2.8971,2.8896,2.8887,2.8932,2.8908,2.8864,2.8951,2.8878,2.8888,2.8964,2.8985,2.9002,2.9006,2.8762,0,0,0,0,0,2.9176,2.9187,2.9128,2.9178,2.9169,2.9108,2.9109,2.9063,2.9039,2.9029,2.8993,2.8972,2.8975,2.8979,2.8979,2.9042,2.9031,2.9077,2.9094,2.9108,2.9117,2.9149,2.9169,2.8957,2.8957,2.8957,0,0,2.9245,2.9209,2.9221,2.9202,2.918,2.9194,2.9101,2.9119,2.9129,2.9032,2.9062,2.9036,2.9007,2.9057,2.9077,2.9038,2.9173,2.9119,2.9131,2.9132,2.916,2.918,2.9198,2.8963,2.8962,2.8961,0,0,2.9376,2.935,2.9389,2.9369,2.9338,2.9296,2.9306,2.9259,2.9238,2.9267,2.9195,2.9206,2.9214,2.9197,2.9189,2.9318,2.9262,2.932,2.9409,2.9441,2.9458,2.9472,2.9518,2.9535,2.9329,2.9329,2.9329,0,2.9465,2.9482,2.9415,2.9439,2.9433,2.9346,2.9385,2.937,2.9341,2.9339,2.9297,2.9306,2.9281,2.9325,2.9357,2.9354,2.9363,2.9323,2.9461,2.9475,2.9487,2.953,2.9547,2.9336,2.9335,2.9335,2.9334,0,2.9593,2.9606,2.9641,2.9615,2.9613,2.9645,2.9584,2.9591,2.9547,2.9511,2.9543,2.951,2.9502,2.951,2.9467,2.9549,2.9526,2.9474,2.9399,2.9516,2.9554,2.957,2.9347,2.9344,2.9342,2.934,0,0,2.9798,2.9735,2.9749,2.9737,2.9697,2.9706,2.9735,2.9727,2.9734,2.9718,2.974,2.975,2.9702,2.9693,2.9648,2.9677,2.9781,2.962,2.9619,2.9651,2.987,2.9909,2.9929,2.9745,2.9747,2.975,2.9872,0,2.9919,2.9962,2.9905,2.9961,2.9974,2.9893,2.9918,2.9897,2.9865,2.9871,2.9836,2.9844,2.978,2.9774,2.9799,2.9763,2.9824,2.9754,2.9765,2.9766,2.9773,2.9949,2.999,3.0107,2.9887,2.9889,2.9891,0,3.0066,3.0056,3.0114,3.0072,3.0075,3.0098,3.0087,3.0094,3.007,3.0044,3.0037,2.9983,3.0009,2.9938,2.9974,2.9928,2.9929,2.9913,2.9916,2.9913,2.9835,2.9951,3.0142,3.016,2.9915,2.9913,2.9911,0,3.0209,3.0211,3.0246,3.0238,3.0189,3.0208,3.0189,3.016,3.016,3.0151,3.015,3.0145,3.0142,3.014,3.0087,3.004,3.013,3.0054,3.011,3.0111,3.013,3.013,3.0325,3.0134,3.0134,3.0134,3.0133,0,3.035,3.0388,3.0309,3.0331,3.0372,3.0307,3.035,3.0323,3.0299,3.0315,3.0246,3.0262,3.0192,3.0201,3.0161,3.0197,3.0196,3.0177,3.0165,3.0182,3.0185,3.0181,3.0171,3.0138,3.0137,3.0136,3.0136,0,3.0516,3.0464,3.0497,3.0449,3.0438,3.0471,3.043,3.0449,3.0413,3.0434,3.0436,3.038,3.0388,3.0335,3.0334,3.0306,3.0362,3.0337,3.037,3.0362,3.042,3.0415,3.0618,3.0642,3.0438,3.044,3.0442,0,3.0608,3.0636,3.0591,3.0596,3.0581,3.059,3.059,3.0528,3.053,3.0505,3.0527,3.053,3.0527,3.0544,3.0504,3.0503,3.0477,3.0548,3.0476,3.0493,3.0477,3.0476,3.0479,3.0563,3.0566,3.0568,3.0569,0,3.0778,3.0751,3.0752,3.0746,3.0747,3.0738,3.0726,3.0734,3.0667,3.0674,3.0681,3.0679,3.0678,3.0681,3.0673,3.0654,3.0601,3.0593,3.0605,3.0622,3.064,3.0631,3.041,3.0588,3.0586,3.0585,3.0584,3.0583,3.0909,3.093,3.0902,3.0906,3.089,3.0881,3.0896,3.0863,3.0867,3.086,3.0824,3.0838,3.0815,3.0798,3.0785,3.0796,3.0761,3.078,3.0784,3.079,3.08,3.064,3.0794,3.0793,3.0793,3.0792,3.0792,0,3.1074,3.1053,3.1057,3.1042,3.1046,3.0996,3.098,3.0986,3.0999,3.0982,3.0982,3.0991,3.0994,3.0956,3.0955,3.0971,3.0947,3.0973,3.097,3.0967,3.0831,3.0819,3.0992,3.0992,3.0992,3.0992,3.0992,3.0992,3.116,3.1194,3.1165,3.119,3.1169,3.1181,3.1177,3.1168,3.1153,3.1166,3.1169,3.1144,3.1118,3.1115,3.1117,3.1105,3.1108,3.1142,3.1123,3.0996,3.0976,3.0958,3.0947,3.1143,3.1144,3.1258,3.1259,3.126]}]]